Time,TemperatureF,DewpointF,PressureIn,WindDirection,WindDirectionDegrees,WindSpeedMPH,WindSpeedGustMPH,Humidity,HourlyPrecipIn,Conditions,Clouds,dailyrainin,SoftwareType,DateUTC
2013-07-27 00:02:00,66.0,64.0,29.96,NE,34,0.0,0.0,94,-99.99,,,-99.99,,2013-07-27 04:02:00,
2013-07-27 00:12:00,66.0,64.0,29.96,NE,34,0.0,0.0,94,-99.99,,,-99.99,,2013-07-27 04:12:00,
2013-07-27 00:43:00,65.0,63.0,29.97,NE,34,0.0,0.0,93,-99.99,,,-99.99,,2013-07-27 04:43:00,
2013-07-27 00:53:00,65.0,63.0,29.97,NE,34,0.0,0.0,93,-99.99,,,-99.99,,2013-07-27 04:53:00,
2013-07-27 01:02:00,65.0,63.0,29.97,NE,34,0.0,0.0,93,-99.99,,,-99.99,,2013-07-27 05:02:00,
2013-07-27 01:22:00,65.0,63.0,29.97,NE,34,0.0,0.0,93,-99.99,,,-99.99,,2013-07-27 05:22:00,
2013-07-27 01:32:00,64.0,62.0,29.97,NE,38,0.0,0.0,93,-99.99,,,-99.99,,2013-07-27 05:32:00,
2013-07-27 01:43:00,64.0,62.0,29.97,NE,38,0.0,0.0,93,-99.99,,,-99.99,,2013-07-27 05:43:00,
2013-07-27 01:52:00,64.0,62.0,29.97,NE,38,0.0,0.0,93,-99.99,,,-99.99,,2013-07-27 05:52:00,
2013-07-27 02:02:00,63.0,61.0,29.96,NE,38,0.0,0.0,94,-99.99,,,-99.99,,2013-07-27 06:02:00,
2013-07-27 02:22:00,63.0,61.0,29.96,NE,46,0.0,0.0,94,-99.99,,,-99.99,,2013-07-27 06:22:00,
2013-07-27 02:33:00,63.0,61.0,29.96,NE,44,0.0,0.0,94,-99.99,,,-99.99,,2013-07-27 06:33:00,
2013-07-27 02:43:00,63.0,61.0,29.96,NE,42,0.0,0.0,94,-99.99,,,-99.99,,2013-07-27 06:43:00,
2013-07-27 02:52:00,63.0,61.0,29.96,NE,42,0.0,0.0,94,-99.99,,,-99.99,,2013-07-27 06:52:00,
2013-07-27 03:02:00,63.0,61.0,29.97,NE,41,0.0,0.0,94,-99.99,,,-99.99,,2013-07-27 07:02:00,
2013-07-27 03:22:00,63.0,61.0,29.97,North,351,0.0,0.0,93,-99.99,,,-99.99,,2013-07-27 07:22:00,
2013-07-27 03:34:00,63.0,61.0,29.97,North,351,0.0,0.0,92,-99.99,,,-99.99,,2013-07-27 07:34:00,
2013-07-27 03:44:00,63.0,61.0,29.98,North,351,0.0,0.0,93,-99.99,,,-99.99,,2013-07-27 07:44:00,
2013-07-27 03:52:00,62.0,60.0,29.97,North,351,0.0,0.0,93,-99.99,,,-99.99,,2013-07-27 07:52:00,
2013-07-27 04:02:00,62.0,60.0,29.98,North,351,0.0,0.0,93,-99.99,,,-99.99,,2013-07-27 08:02:00,
2013-07-27 04:12:00,62.0,60.0,29.98,North,351,0.0,0.0,92,-99.99,,,-99.99,,2013-07-27 08:12:00,
2013-07-27 04:22:00,61.0,59.0,29.97,North,351,0.0,0.0,92,-99.99,,,-99.99,,2013-07-27 08:22:00,
2013-07-27 04:43:00,61.0,59.0,29.98,North,351,0.0,0.0,93,-99.99,,,-99.99,,2013-07-27 08:43:00,
2013-07-27 04:53:00,61.0,59.0,29.98,North,350,0.0,0.0,93,-99.99,,,-99.99,,2013-07-27 08:53:00,
2013-07-27 05:02:00,61.0,59.0,29.98,North,351,0.0,0.0,93,-99.99,,,-99.99,,2013-07-27 09:02:00,
2013-07-27 05:12:00,60.0,58.0,29.98,North,351,0.0,0.0,94,-99.99,,,-99.99,,2013-07-27 09:12:00,
2013-07-27 05:22:00,61.0,59.0,29.98,North,350,0.0,0.0,94,-99.99,,,-99.99,,2013-07-27 09:22:00,
2013-07-27 05:33:00,61.0,59.0,29.98,North,351,0.0,0.0,94,-99.99,,,-99.99,,2013-07-27 09:33:00,
2013-07-27 05:44:00,61.0,59.0,29.98,North,351,0.0,0.0,94,-99.99,,,-99.99,,2013-07-27 09:44:00,
2013-07-27 05:52:00,60.0,58.0,29.99,North,350,0.0,0.0,94,-99.99,,,-99.99,,2013-07-27 09:52:00,
2013-07-27 06:02:00,60.0,58.0,30.00,North,350,0.0,0.0,94,-99.99,,,-99.99,,2013-07-27 10:02:00,
2013-07-27 06:12:00,60.0,58.0,30.00,North,351,0.0,0.0,94,-99.99,,,-99.99,,2013-07-27 10:12:00,
2013-07-27 06:22:00,60.0,58.0,30.01,North,351,0.0,0.0,94,-99.99,,,-99.99,,2013-07-27 10:22:00,
2013-07-27 06:32:00,60.0,58.0,30.01,North,351,0.0,0.0,94,-99.99,,,-99.99,,2013-07-27 10:32:00,
2013-07-27 06:43:00,60.0,58.0,30.01,North,350,0.0,0.0,94,-99.99,,,-99.99,,2013-07-27 10:43:00,
2013-07-27 06:52:00,60.0,59.0,30.01,North,355,0.0,0.0,95,-99.99,,,-99.99,,2013-07-27 10:52:00,
2013-07-27 07:02:00,61.0,60.0,30.01,North,355,0.0,0.0,95,-99.99,,,-99.99,,2013-07-27 11:02:00,
2013-07-27 07:22:00,62.0,60.0,30.01,NNE,32,0.0,0.0,94,-99.99,,,-99.99,,2013-07-27 11:22:00,
2013-07-27 07:32:00,62.0,60.0,30.01,NNE,24,0.0,0.0,94,-99.99,,,-99.99,,2013-07-27 11:32:00,
2013-07-27 07:44:00,62.0,60.0,30.01,NNE,24,0.0,0.0,94,-99.99,,,-99.99,,2013-07-27 11:44:00,
2013-07-27 07:52:00,64.0,62.0,30.01,North,5,0.0,0.0,92,-99.99,,,-99.99,,2013-07-27 11:52:00,
2013-07-27 08:03:00,65.0,62.0,30.02,North,5,0.0,0.0,90,-99.99,,,-99.99,,2013-07-27 12:03:00,
2013-07-27 08:22:00,67.0,63.0,30.02,NNW,329,0.0,0.0,86,-99.99,,,-99.99,,2013-07-27 12:22:00,
2013-07-27 08:33:00,68.0,63.0,30.02,NNW,327,0.0,0.0,84,-99.99,,,-99.99,,2013-07-27 12:33:00,
2013-07-27 08:43:00,68.0,63.0,30.02,NNW,332,0.0,0.0,83,-99.99,,,-99.99,,2013-07-27 12:43:00,
2013-07-27 08:52:00,69.0,63.0,30.03,NNW,332,0.0,0.0,82,-99.99,,,-99.99,,2013-07-27 12:52:00,
2013-07-27 09:44:00,73.0,66.0,30.03,NNW,332,0.0,0.0,78,-99.99,,,-99.99,,2013-07-27 13:44:00,
2013-07-27 09:53:00,74.0,65.0,30.03,NE,34,0.0,0.0,74,-99.99,,,-99.99,,2013-07-27 13:53:00,
2013-07-27 10:02:00,74.0,65.0,30.03,NNW,331,0.0,0.0,73,-99.99,,,-99.99,,2013-07-27 14:02:00,
2013-07-27 10:22:00,76.0,66.0,30.03,NW,309,0.0,0.0,71,-99.99,,,-99.99,,2013-07-27 14:22:00,
2013-07-27 10:32:00,76.0,64.0,30.03,NW,323,0.0,0.0,67,-99.99,,,-99.99,,2013-07-27 14:32:00,
2013-07-27 10:44:00,76.0,64.0,30.03,NW,313,0.0,0.0,67,-99.99,,,-99.99,,2013-07-27 14:44:00,
2013-07-27 10:54:00,77.0,63.0,30.03,WNW,293,2.0,6.0,62,-99.99,,,-99.99,,2013-07-27 14:54:00,
2013-07-27 11:02:00,77.0,65.0,30.03,NW,326,1.0,7.0,66,-99.99,,,-99.99,,2013-07-27 15:02:00,
2013-07-27 11:12:00,78.0,64.0,30.02,NW,306,2.0,6.0,62,-99.99,,,-99.99,,2013-07-27 15:12:00,
2013-07-27 11:22:00,79.0,66.0,30.02,NW,311,2.0,4.0,64,-99.99,,,-99.99,,2013-07-27 15:22:00,
2013-07-27 11:44:00,79.0,64.0,30.02,WNW,287,2.0,4.0,60,-99.99,,,-99.99,,2013-07-27 15:44:00,
2013-07-27 11:53:00,80.0,65.0,30.03,ESE,105,0.0,4.0,60,-99.99,,,-99.99,,2013-07-27 15:53:00,
2013-07-27 12:02:00,80.0,65.0,30.02,East,88,0.0,2.0,61,-99.99,,,-99.99,,2013-07-27 16:02:00,
2013-07-27 12:12:00,80.0,66.0,30.03,South,175,1.0,9.0,62,-99.99,,,-99.99,,2013-07-27 16:12:00,
2013-07-27 12:33:00,81.0,65.0,30.03,ESE,123,0.0,5.0,59,-99.99,,,-99.99,,2013-07-27 16:33:00,
2013-07-27 12:43:00,81.0,65.0,30.02,SSE,159,3.0,7.0,59,-99.99,,,-99.99,,2013-07-27 16:43:00,
2013-07-27 12:53:00,81.0,65.0,30.02,South,177,1.0,7.0,58,-99.99,,,-99.99,,2013-07-27 16:53:00,
2013-07-27 13:02:00,82.0,65.0,30.02,NW,307,2.0,6.0,56,-99.99,,,-99.99,,2013-07-27 17:02:00,
2013-07-27 13:12:00,82.0,65.0,30.02,SSE,161,2.0,5.0,56,-99.99,,,-99.99,,2013-07-27 17:12:00,
2013-07-27 13:23:00,82.0,64.0,30.01,North,5,1.0,6.0,54,-99.99,,,-99.99,,2013-07-27 17:23:00,
2013-07-27 13:32:00,82.0,63.0,30.01,NW,314,2.0,9.0,53,-99.99,,,-99.99,,2013-07-27 17:32:00,
2013-07-27 13:43:00,82.0,63.0,30.01,South,175,6.0,10.0,53,-99.99,,,-99.99,,2013-07-27 17:43:00,
2013-07-27 13:53:00,82.0,62.0,30.01,WSW,246,1.0,6.0,51,-99.99,,,-99.99,,2013-07-27 17:53:00,
2013-07-27 14:03:00,83.0,62.0,30.01,West,271,1.0,10.0,50,-99.99,,,-99.99,,2013-07-27 18:03:00,
2013-07-27 14:12:00,83.0,65.0,30.00,SSE,164,1.0,4.0,55,-99.99,,,-99.99,,2013-07-27 18:12:00,
2013-07-27 14:22:00,82.0,64.0,30.00,SSW,206,1.0,7.0,54,-99.99,,,-99.99,,2013-07-27 18:22:00,
2013-07-27 14:33:00,83.0,63.0,30.00,South,178,6.0,9.0,51,-99.99,,,-99.99,,2013-07-27 18:33:00,
2013-07-27 14:43:00,83.0,66.0,30.00,South,179,0.0,5.0,56,-99.99,,,-99.99,,2013-07-27 18:43:00,
2013-07-27 14:53:00,83.0,65.0,30.00,SSW,192,6.0,9.0,54,-99.99,,,-99.99,,2013-07-27 18:53:00,
2013-07-27 15:02:00,83.0,66.0,30.00,South,183,3.0,12.0,57,-99.99,,,-99.99,,2013-07-27 19:02:00,
2013-07-27 15:12:00,83.0,65.0,30.00,SSE,165,7.0,12.0,54,-99.99,,,-99.99,,2013-07-27 19:12:00,
2013-07-27 15:23:00,83.0,65.0,30.00,SSE,167,5.0,10.0,54,-99.99,,,-99.99,,2013-07-27 19:23:00,
2013-07-27 15:32:00,83.0,65.0,30.00,SSE,167,5.0,10.0,54,-99.99,,,-99.99,,2013-07-27 19:32:00,
2013-07-27 15:43:00,82.0,65.0,29.99,SE,142,3.0,13.0,56,-99.99,,,-99.99,,2013-07-27 19:43:00,
2013-07-27 15:53:00,83.0,65.0,29.99,South,188,2.0,6.0,54,-99.99,,,-99.99,,2013-07-27 19:53:00,
2013-07-27 16:02:00,83.0,65.0,29.99,SSE,149,4.0,8.0,54,-99.99,,,-99.99,,2013-07-27 20:02:00,
2013-07-27 16:12:00,83.0,65.0,29.99,SSE,148,0.0,3.0,55,-99.99,,,-99.99,,2013-07-27 20:12:00,
2013-07-27 16:23:00,82.0,66.0,29.99,SE,137,6.0,11.0,58,-99.99,,,-99.99,,2013-07-27 20:23:00,
2013-07-27 16:32:00,82.0,64.0,29.99,SSW,209,2.0,5.0,54,-99.99,,,-99.99,,2013-07-27 20:32:00,
2013-07-27 16:43:00,82.0,65.0,29.98,ESE,111,0.0,7.0,56,-99.99,,,-99.99,,2013-07-27 20:43:00,
2013-07-27 16:52:00,83.0,66.0,29.99,SSE,155,3.0,8.0,57,-99.99,,,-99.99,,2013-07-27 20:52:00,
2013-07-27 17:03:00,83.0,65.0,29.98,South,190,0.0,10.0,55,-99.99,,,-99.99,,2013-07-27 21:03:00,
2013-07-27 17:12:00,83.0,66.0,29.98,SSW,195,0.0,5.0,57,-99.99,,,-99.99,,2013-07-27 21:12:00,
2013-07-27 17:23:00,83.0,66.0,29.98,SSW,196,0.0,3.0,57,-99.99,,,-99.99,,2013-07-27 21:23:00,
2013-07-27 17:33:00,83.0,66.0,29.98,SSE,153,4.0,6.0,56,-99.99,,,-99.99,,2013-07-27 21:33:00,
2013-07-27 17:43:00,82.0,64.0,29.98,South,187,3.0,5.0,55,-99.99,,,-99.99,,2013-07-27 21:43:00,
2013-07-27 17:52:00,82.0,64.0,29.98,South,190,0.0,5.0,55,-99.99,,,-99.99,,2013-07-27 21:52:00,
2013-07-27 18:02:00,82.0,69.0,29.97,ESE,113,0.0,5.0,64,-99.99,,,-99.99,,2013-07-27 22:02:00,
2013-07-27 18:12:00,81.0,66.0,29.97,South,179,2.0,5.0,61,-99.99,,,-99.99,,2013-07-27 22:12:00,
2013-07-27 18:22:00,81.0,69.0,29.97,SSE,157,4.0,5.0,67,-99.99,,,-99.99,,2013-07-27 22:22:00,
2013-07-27 18:33:00,80.0,70.0,29.97,SSE,150,3.0,6.0,71,-99.99,,,-99.99,,2013-07-27 22:33:00,
2013-07-27 18:43:00,79.0,69.0,29.97,SSE,149,3.0,5.0,72,-99.99,,,-99.99,,2013-07-27 22:43:00,
2013-07-27 18:53:00,79.0,70.0,29.97,SSE,150,0.0,4.0,74,-99.99,,,-99.99,,2013-07-27 22:53:00,
2013-07-27 19:02:00,78.0,69.0,29.97,SSE,149,0.0,3.0,75,-99.99,,,-99.99,,2013-07-27 23:02:00,
2013-07-27 19:12:00,77.0,69.0,29.97,SSE,150,0.0,5.0,77,-99.99,,,-99.99,,2013-07-27 23:12:00,
2013-07-27 19:22:00,77.0,70.0,29.98,SSE,149,1.0,4.0,79,-99.99,,,-99.99,,2013-07-27 23:22:00,
2013-07-27 19:32:00,76.0,70.0,29.98,SSE,149,2.0,3.0,81,-99.99,,,-99.99,,2013-07-27 23:32:00,
2013-07-27 19:44:00,75.0,69.0,29.98,SSE,150,0.0,4.0,82,-99.99,,,-99.99,,2013-07-27 23:44:00,
2013-07-27 19:52:00,75.0,70.0,29.98,SSE,149,0.0,4.0,84,-99.99,,,-99.99,,2013-07-27 23:52:00,
2013-07-27 20:02:00,74.0,69.0,29.98,SSE,150,0.0,2.0,84,-99.99,,,-99.99,,2013-07-28 00:02:00,
2013-07-27 20:12:00,74.0,69.0,29.98,SSE,149,0.0,3.0,85,-99.99,,,-99.99,,2013-07-28 00:12:00,
2013-07-27 20:23:00,74.0,69.0,29.98,SSE,149,0.0,2.0,85,-99.99,,,-99.99,,2013-07-28 00:23:00,
2013-07-27 20:32:00,73.0,69.0,29.98,SSE,149,0.0,1.0,86,-99.99,,,-99.99,,2013-07-28 00:32:00,
2013-07-27 20:44:00,73.0,69.0,29.98,SSE,150,0.0,0.0,87,-99.99,,,-99.99,,2013-07-28 00:44:00,
2013-07-27 20:53:00,73.0,69.0,29.99,SSE,149,0.0,0.0,88,-99.99,,,-99.99,,2013-07-28 00:53:00,
2013-07-27 21:02:00,72.0,68.0,29.99,SSE,149,0.0,0.0,87,-99.99,,,-99.99,,2013-07-28 01:02:00,
2013-07-27 21:12:00,72.0,68.0,29.99,SSE,149,0.0,0.0,88,-99.99,,,-99.99,,2013-07-28 01:12:00,
2013-07-27 21:23:00,71.0,67.0,30.00,SSE,149,0.0,0.0,88,-99.99,,,-99.99,,2013-07-28 01:23:00,
2013-07-27 21:32:00,71.0,68.0,30.00,SSE,149,0.0,0.0,89,-99.99,,,-99.99,,2013-07-28 01:32:00,
2013-07-27 21:43:00,71.0,68.0,30.00,SSE,149,0.0,0.0,90,-99.99,,,-99.99,,2013-07-28 01:43:00,
2013-07-27 21:53:00,70.0,67.0,30.01,SSE,149,0.0,0.0,90,-99.99,,,-99.99,,2013-07-28 01:53:00,
2013-07-27 22:03:00,70.0,67.0,30.00,SSE,149,0.0,0.0,91,-99.99,,,-99.99,,2013-07-28 02:03:00,
2013-07-27 22:12:00,69.0,66.0,30.00,SSE,149,0.0,0.0,91,-99.99,,,-99.99,,2013-07-28 02:12:00,
2013-07-27 22:22:00,69.0,66.0,30.00,SSE,149,0.0,0.0,91,-99.99,,,-99.99,,2013-07-28 02:22:00,
2013-07-27 22:32:00,69.0,66.0,29.99,SSE,150,0.0,0.0,91,-99.99,,,-99.99,,2013-07-28 02:32:00,
2013-07-27 22:42:00,69.0,66.0,30.00,SSE,149,0.0,0.0,91,-99.99,,,-99.99,,2013-07-28 02:42:00,
2013-07-27 22:53:00,69.0,66.0,30.00,SSE,149,0.0,0.0,91,-99.99,,,-99.99,,2013-07-28 02:53:00,
2013-07-27 23:03:00,69.0,66.0,30.01,SSE,150,0.0,0.0,90,-99.99,,,-99.99,,2013-07-28 03:03:00,
2013-07-27 23:12:00,69.0,66.0,30.00,SSE,149,0.0,0.0,90,-99.99,,,-99.99,,2013-07-28 03:12:00,
2013-07-27 23:22:00,70.0,67.0,30.00,SSE,149,0.0,0.0,89,-99.99,,,-99.99,,2013-07-28 03:22:00,
2013-07-27 23:32:00,69.0,65.0,30.00,SSE,149,0.0,0.0,88,-99.99,,,-99.99,,2013-07-28 03:32:00,
2013-07-27 23:42:00,69.0,65.0,30.00,SSE,149,0.0,0.0,88,-99.99,,,-99.99,,2013-07-28 03:42:00,
2013-07-27 23:53:00,69.0,65.0,30.01,SSE,149,0.0,0.0,88,-99.99,,,-99.99,,2013-07-28 03:53:00,